Location: Munkebjergskolens Observatorium
(55.3864°N, 10.3987°E)
Time: 23:08:19
(UTC+01:00)

DELTA 1 DEB - Pass Details

Date: 08 December 2023
Orbit: 783 x 826 km, 98.9° (Epoch: 04 March)

Event Time Altitude Azimuth Distance (km) Brightness Sun altitude
Rises 07:38:35 0° 15° (NNE) 3,372 ? -6.9°
Reaches altitude 10° 07:40:56 10° 14° (NNE) 2,439 ? -6.6°
Maximum altitude 07:46:20 74° 291° (WNW) 866 ? -6.0°
Drops below altitude 10° 07:51:42 10° 207° (SSW) 2,429 ? -5.3°
Sets 07:54:03 0° 206° (SSW) 3,357 ? -5.0°
